[[{"header":{"parameterUnit":"m.s-1","parameterCategory":1,"la1":30.2991,"la2":30.254,"lo1":-89.0895,"lo2":-89.0444,"dy":0.0017,"dx":0.0017,"nx":28,"ny":28,"refTime":"2024-07-27T21:00:00:Z","depth":0,"parameterNumber":2,"parameterNumberName":"U-component_of_WINDS"},"data":[0,0,0,0,0,0,0,0,0,0,0,0,0,0,0,0,0,0,0,0,0,0,0,0,0,0,0,0,0,0,0,0,0,0,0,0,0,0,0,0,0,0,0,0,0,0,0,0,0,0,0,0,0,0,0,0,0,0,0.921,0.921,0,0.9181,0.918,0.918,0.9149,0.9148,0.9148,0.9148,0.9118,0.9118,0.9118,0,0,0,0,0,0,0,0,0,0,0,0,0,0.9241,0.9241,0.921,0.921,0.921,0.9181,0.918,0.918,0.9149,0.9148,0.9148,0.9147,0.9119,0.9118,0.9118,0,0,0,0,0,0,0,0,0,0,0,0,0,0.9221,0.9241,0.921,0.9191,0.9189,0.9181,0.918,0.918,0.9149,0.9148,0.9148,0.9147,0.9119,0.9118,0.9118,0.9127,0,0,0.9116,0.9116,0,0,0,0,0,0,0,0,0.9223,0.922,0.9194,0.9192,0.919,0.9168,0.918,0.9162,0.9149,0.9164,0.9148,0.9147,0.9135,0.9134,0.9129,0.9126,0.9125,0.9116,0.9116,0.9115,0.9115,0,0,0,0,0,0,0,0.9224,0.9221,0.9199,0.9194,0.9191,0.9184,0.918,0.9177,0.9154,0.9163,0.916,0.9157,0.9134,0.913,0.9128,0.9124,0.9116,0.9115,0.9115,0.9115,0.9126,0.9127,0,0,0,0,0,0,0.9228,0.9223,0.92,0.9198,0.9205,0.9184,0.918,0.9176,0.9154,0.915,0.9158,0.9156,0.9131,0.9129,0.9127,0.9136,0.9115,0.9115,0.9114,0.9126,0.9126,0.9127,0,0,0,0,0,0,0.9229,0.9226,0.9201,0.921,0.9206,0.9184,0.9179,0.9175,0.9171,0.915,0.9146,0.9158,0.9131,0.9128,0.9127,0.9135,0.9115,0.9114,0.9125,0.9126,0.9127,0.9155,0,0,0,0,0,0,0.923,0.9227,0.923,0.921,0.9205,0.9201,0.918,0.9175,0.917,0.9167,0.9149,0.9145,0.913,0.9128,0.9127,0.9134,0.9114,0.9124,0.9125,0.9126,0.9153,0.9157,0.916,0,0,0,0,0,0.9231,0.924,0.9231,0.9228,0.9209,0.9201,0.9199,0.9181,0.9171,0.9174,0.916,0.9146,0.9135,0.9128,0.9126,0.9134,0.9123,0.9125,0.9126,0.9152,0.9156,0.916,0,0,0,0,0,0,0.9262,0.9237,0.9226,0.9228,0.9217,0.9196,0.92,0.9186,0.9178,0.9176,0.9154,0.915,0.9152,0.9143,0.9136,0.9141,0.9127,0.9128,0.9147,0.9151,0.9154,0.9156,0.9113,0,0,0,0,0,0.9269,0.9265,0.9243,0.9247,0.9242,0.9222,0.9218,0.9205,0.9193,0.9188,0.9174,0.9163,0.9157,0.9154,0.9147,0.9152,0.9147,0.9156,0.9159,0.9162,0.9163,0.9164,0.9168,0.9132,0.9132,0.9132,0,0,0.9284,0.9269,0.9268,0.9253,0.9243,0.9239,0.9218,0.9215,0.9212,0.9188,0.9186,0.9175,0.9162,0.9163,0.9164,0.9156,0.9172,0.9164,0.9166,0.9166,0.9166,0.917,0.9173,0.9133,0.9132,0.9132,0,0,0.9308,0.9297,0.9299,0.9289,0.9273,0.926,0.926,0.9241,0.9233,0.9231,0.9212,0.9208,0.9198,0.9189,0.9183,0.9204,0.919,0.9202,0.9219,0.9221,0.9223,0.9226,0.9232,0.9235,0.9203,0.9203,0.9203,0,0.9328,0.9321,0.9302,0.9299,0.9293,0.927,0.9272,0.9263,0.9247,0.9243,0.9235,0.9221,0.921,0.9209,0.9214,0.921,0.921,0.9204,0.9225,0.9227,0.9229,0.9235,0.9237,0.9205,0.9205,0.9205,0.9204,0,0.9346,0.9342,0.9345,0.9329,0.9323,0.9323,0.9304,0.93,0.9288,0.9275,0.9273,0.9259,0.9248,0.9247,0.9236,0.9245,0.924,0.9229,0.9214,0.9234,0.9239,0.9242,0.9207,0.9207,0.9206,0.9206,0,0,0.9389,0.9362,0.9363,0.9355,0.9337,0.9333,0.9332,0.9321,0.9318,0.9308,0.9306,0.9298,0.9287,0.928,0.9267,0.9268,0.9284,0.9256,0.9255,0.9261,0.9293,0.9301,0.9304,0.9275,0.9275,0.9276,0.9294,0,0.941,0.9405,0.9388,0.9389,0.9384,0.9362,0.9361,0.935,0.9338,0.9332,0.9319,0.9314,0.93,0.9295,0.9296,0.9282,0.929,0.9281,0.9273,0.9273,0.9276,0.9307,0.9316,0.9333,0.9296,0.9296,0.9296,0,0.9433,0.9423,0.9424,0.9404,0.9402,0.9401,0.939,0.9385,0.9371,0.9362,0.9355,0.934,0.9337,0.9323,0.9319,0.9313,0.9309,0.9302,0.9302,0.93,0.9285,0.9305,0.9339,0.9341,0.9299,0.9299,0.9299,0,0.9463,0.945,0.9449,0.9443,0.942,0.942,0.9411,0.9397,0.9391,0.9382,0.9378,0.9368,0.9363,0.9356,0.9338,0.933,0.9336,0.9321,0.9328,0.9329,0.933,0.933,0.9363,0.9329,0.9329,0.9329,0.9329,0,0.9488,0.9489,0.9462,0.9461,0.9461,0.9441,0.9442,0.9431,0.9418,0.9414,0.9396,0.9393,0.937,0.9365,0.9352,0.935,0.9348,0.9341,0.9337,0.9342,0.9343,0.9338,0.9337,0.9329,0.9329,0.9329,0.9329,0,0.9521,0.9503,0.95,0.9479,0.9474,0.9475,0.9457,0.9455,0.9442,0.9438,0.9436,0.9415,0.9408,0.939,0.9378,0.9369,0.9371,0.9365,0.9375,0.9373,0.9381,0.938,0.9411,0.9414,0.9379,0.938,0.938,0,0.9538,0.9538,0.9517,0.9513,0.9504,0.9498,0.9492,0.9472,0.9467,0.9451,0.9451,0.9442,0.9434,0.9423,0.9407,0.9398,0.9391,0.9402,0.9389,0.9394,0.939,0.939,0.939,0.9405,0.9406,0.9406,0.9406,0,0.9568,0.9559,0.9551,0.954,0.9534,0.9524,0.9514,0.9512,0.9489,0.9484,0.9476,0.947,0.9457,0.9448,0.9436,0.9427,0.9413,0.9411,0.9412,0.9416,0.9422,0.9418,0.9382,0.941,0.941,0.9409,0.9409,0.9409,0.9593,0.9592,0.9577,0.9569,0.9558,0.9549,0.9546,0.9532,0.9525,0.9513,0.9502,0.9495,0.9481,0.9463,0.9455,0.9449,0.9442,0.9444,0.9444,0.9444,0.9446,0.9424,0.9447,0.9447,0.9447,0.9447,0.9446,0,0.9622,0.9611,0.9604,0.9589,0.9583,0.957,0.9558,0.9553,0.9547,0.9535,0.9527,0.9517,0.9509,0.9492,0.9482,0.948,0.9473,0.9478,0.9478,0.9476,0.9454,0.9453,0.9484,0.9484,0.9484,0.9484,0.9484,0.9484,0.9636,0.9634,0.9623,0.9615,0.9604,0.9596,0.959,0.9581,0.9571,0.9562,0.9554,0.9543,0.9529,0.9518,0.9509,0.9504,0.9501,0.9508,0.9501,0.9481,0.9477,0.9474,0.9474,0.9508,0.9508,0.9524,0.9524,0.9524]},{"header":{"parameterUnit":"m.s-1","parameterCategory":1,"la1":30.2991,"la2":30.254,"lo1":-89.0895,"lo2":-89.0444,"dy":0.0017,"dx":0.0017,"nx":28,"ny":28,"refTime":"2024-07-27T21:00:00:Z","depth":0,"parameterNumber":3,"parameterNumberName":"V-component_of_WINDS"},"data":[0,0,0,0,0,0,0,0,0,0,0,0,0,0,0,0,0,0,0,0,0,0,0,0,0,0,0,0,0,0,0,0,0,0,0,0,0,0,0,0,0,0,0,0,0,0,0,0,0,0,0,0,0,0,0,0,0,0,4.2268,4.2268,0,4.2267,4.2267,4.2267,4.2292,4.2293,4.2294,4.2294,4.229,4.229,4.2289,0,0,0,0,0,0,0,0,0,0,0,0,0,4.2287,4.2287,4.2268,4.2268,4.2268,4.2267,4.2267,4.2267,4.2292,4.2293,4.2294,4.2295,4.2291,4.229,4.2289,0,0,0,0,0,0,0,0,0,0,0,0,0,4.2282,4.2286,4.2268,4.228,4.2281,4.2267,4.2267,4.2267,4.2292,4.2293,4.2294,4.2295,4.2291,4.229,4.2289,4.2262,0,0,4.2285,4.2285,0,0,0,0,0,0,0,0,4.2282,4.2281,4.2278,4.2279,4.228,4.2281,4.2273,4.2265,4.2292,4.2288,4.2294,4.2296,4.2286,4.2286,4.2283,4.2261,4.2261,4.2285,4.2285,4.2284,4.2284,0,0,0,0,0,0,0,4.2282,4.2281,4.2267,4.2278,4.228,4.2285,4.2285,4.2271,4.2281,4.2288,4.229,4.229,4.2287,4.2284,4.2283,4.2261,4.2285,4.2284,4.2284,4.2283,4.2216,4.2215,0,0,0,0,0,0,4.2281,4.2281,4.2267,4.2267,4.2284,4.2284,4.2284,4.228,4.2281,4.2283,4.2289,4.2291,4.2286,4.2284,4.2283,4.2251,4.2284,4.2283,4.2283,4.2217,4.2216,4.2215,0,0,0,0,0,0,4.2282,4.228,4.2267,4.2275,4.2274,4.2282,4.2277,4.2279,4.2276,4.2282,4.2284,4.2284,4.2286,4.2285,4.2267,4.2251,4.2283,4.2282,4.2219,4.2217,4.2216,4.2186,0,0,0,0,0,0,4.2282,4.228,4.227,4.2274,4.2273,4.2252,4.2276,4.2278,4.2275,4.2277,4.2278,4.2279,4.2287,4.2268,4.2266,4.225,4.2281,4.222,4.2218,4.2216,4.2188,4.2184,4.2179,0,0,0,0,0,4.2283,4.2261,4.227,4.2268,4.2261,4.2251,4.225,4.226,4.2273,4.2263,4.2267,4.2279,4.2254,4.2266,4.2264,4.2247,4.2221,4.2219,4.2216,4.219,4.2185,4.218,0,0,0,0,0,0,4.2254,4.2262,4.2271,4.2251,4.225,4.2255,4.2243,4.2254,4.2248,4.2251,4.2263,4.2263,4.2243,4.2243,4.2258,4.2221,4.224,4.2236,4.2221,4.2215,4.2211,4.221,4.228,0,0,0,0,0,4.2245,4.2237,4.2244,4.2226,4.2225,4.2234,4.223,4.2238,4.2237,4.2236,4.2239,4.2236,4.2228,4.2222,4.2214,4.2189,4.2189,4.2177,4.2172,4.2168,4.2165,4.2151,4.2145,4.2207,4.2207,4.2207,0,0,4.2227,4.2231,4.2224,4.222,4.222,4.221,4.2233,4.2222,4.2214,4.2234,4.2218,4.2219,4.2218,4.2196,4.2186,4.2196,4.2148,4.2165,4.2162,4.2161,4.2148,4.2142,4.2137,4.2205,4.2205,4.2206,0,0,4.2189,4.2191,4.2175,4.2176,4.2176,4.2183,4.2179,4.2182,4.2185,4.2168,4.2183,4.2174,4.2159,4.2157,4.2154,4.2115,4.2126,4.2113,4.2088,4.2075,4.207,4.2065,4.2051,4.2045,4.2109,4.2109,4.2109,0,4.2166,4.2152,4.2166,4.2153,4.215,4.217,4.2153,4.2152,4.215,4.2147,4.2158,4.214,4.214,4.2118,4.2108,4.2106,4.2101,4.2112,4.207,4.2065,4.2062,4.2048,4.2042,4.2108,4.2108,4.2108,4.2108,0,4.2123,4.2114,4.2101,4.21,4.2095,4.2081,4.2091,4.2085,4.2094,4.2098,4.2081,4.2083,4.2075,4.2071,4.2079,4.2049,4.2055,4.2068,4.2087,4.2054,4.2041,4.2036,4.2105,4.2106,4.2106,4.2107,0,0,4.2065,4.2072,4.2067,4.2067,4.2069,4.2061,4.2048,4.2042,4.2036,4.2034,4.2022,4.2009,4.2021,4.2017,4.2025,4.2013,4.1982,4.2027,4.2028,4.2018,4.1948,4.1938,4.1932,4.1989,4.1988,4.1988,4.1948,0,4.2027,4.2005,4.2017,4.1993,4.1984,4.2002,4.199,4.199,4.1994,4.1986,4.199,4.1981,4.1997,4.1995,4.1985,4.1988,4.1968,4.1991,4.1977,4.1976,4.1976,4.1925,4.1914,4.1876,4.1943,4.1942,4.1942,0,4.198,4.1977,4.1952,4.1956,4.1953,4.1942,4.1937,4.193,4.193,4.1934,4.193,4.1941,4.1927,4.1946,4.1926,4.1942,4.1937,4.1938,4.1936,4.1934,4.1956,4.192,4.1865,4.1859,4.1934,4.1935,4.1935,0,4.1939,4.1929,4.1912,4.1911,4.1916,4.1908,4.1909,4.191,4.1906,4.1902,4.1899,4.1892,4.1889,4.1883,4.1891,4.1905,4.187,4.189,4.1871,4.1871,4.1862,4.1862,4.1803,4.186,4.1861,4.1861,4.1861,0,4.1894,4.1878,4.1894,4.1884,4.1866,4.1879,4.1861,4.1864,4.1865,4.1855,4.187,4.186,4.1873,4.1864,4.187,4.1852,4.185,4.1852,4.1853,4.185,4.1849,4.1846,4.1848,4.1859,4.186,4.186,4.186,0,4.1845,4.1855,4.1838,4.1845,4.1846,4.1832,4.1837,4.1827,4.1833,4.182,4.1818,4.1826,4.1816,4.1825,4.1815,4.1819,4.1795,4.18,4.1795,4.1796,4.1776,4.1777,4.1712,4.1704,4.1767,4.1767,4.1766,0,4.1815,4.1803,4.1808,4.1803,4.1804,4.1796,4.1792,4.1805,4.18,4.1799,4.1789,4.1781,4.1775,4.1758,4.1762,4.1754,4.176,4.1737,4.1758,4.1755,4.1758,4.1758,4.1756,4.1732,4.1732,4.1731,4.1731,0,4.1761,4.1767,4.1761,4.1757,4.1752,4.1749,4.1747,4.1742,4.1755,4.1749,4.174,4.1735,4.1726,4.1717,4.1711,4.1711,4.1722,4.1724,4.1719,4.1714,4.1711,4.1712,4.1782,4.1725,4.1726,4.1726,4.1726,4.1727,4.1719,4.1709,4.1712,4.1705,4.1705,4.1703,4.1694,4.17,4.1693,4.1687,4.1695,4.1683,4.1683,4.1676,4.1675,4.1665,4.1674,4.1667,4.1665,4.1663,4.166,4.1714,4.1664,4.1664,4.1665,4.1665,4.1665,0,4.1665,4.1668,4.1661,4.1659,4.1653,4.1667,4.1665,4.1659,4.1649,4.1649,4.1643,4.1632,4.1623,4.1628,4.162,4.1611,4.1616,4.1609,4.1609,4.1609,4.1652,4.1657,4.1605,4.1605,4.1605,4.1605,4.1605,4.1605,4.1636,4.162,4.1626,4.161,4.1612,4.1602,4.16,4.1598,4.1598,4.1585,4.1579,4.1582,4.1583,4.1576,4.1569,4.157,4.1566,4.1556,4.1559,4.16,4.1606,4.1611,4.1615,4.1556,4.1555,4.1516,4.1516,4.1515]}]]